Location: De Greiden
(52.9496°N, 5.9137°E)
Time: 23:40:58
(UTC+00:00)

Okean O Rocket - Pass Details

Date: 24 January 2021
Orbit: 622 x 645 km, 98.2° (Epoch: 01 March)

Event Time Altitude Azimuth Distance (km) Brightness Sun altitude
Rises 18:01:14 0° 196° (SSW) 2,941 5.4 -17.0°
Reaches altitude 10° 18:03:45 10° 210° (SSW) 2,034 4.7 -17.3°
Maximum altitude 18:07:27 26° 266° (W) 1,274 4.0 -17.9°
Drops below altitude 10° 18:11:11 10° 323° (NW) 2,037 4.6 -18.4°
Sets 18:13:42 0° 337° (NNW) 2,947 5.3 -18.8°
